Location: ?????????
(41.2393°N, 22.9479°E)
Time: 23:45:04
(UTC+00:00)

Cosmos 2251 Rocket - Pass Details

Date: 17 November 2025
Orbit: 760 x 788 km, 74.0° (Epoch: 09 December)

Event Time Altitude Azimuth Distance (km) Brightness Sun altitude
Rises 16:18:28 0° 193° (SSW) 3,223 7.1 -13.4°
Reaches altitude 10° 16:20:49 10° 192° (SSW) 2,305 6.3 -13.9°
Maximum altitude 16:26:03 76° 107° (ESE) 802 3.4 -14.8°
Drops below altitude 10° 16:31:22 10° 23° (NNE) 2,340 5.7 -15.8°
Enters shadow 16:32:10 - 22° (NNE) 2,650 6.0 -16.0°
